| time (UTC) | temp C | wind direction | speed KPH | gust KPH | rain 1hr cm | rain 24hr cm | rain mn cm | humidity % | barometer mb |
| 20260505171818 | 27 | 171 | 3.2 | 16.1 | 0.00 | 0.00 | 0.00 | 60 | 1012.9 |
| 20260505171314 | 27 | 203 | 4.8 | 16.1 | 0.00 | 0.00 | 0.00 | 58 | 1013.0 |
| 20260505170811 | 27 | 239 | 6.4 | 16.1 | 0.00 | 0.00 | 0.00 | 59 | 1013.0 |
| 20260505170327 | 27 | 188 | 1.6 | 16.1 | 0.00 | 0.00 | 0.00 | 59 | 1012.9 |
| 20260505165822 | 26 | 219 | 8.0 | 16.1 | 0.00 | 0.00 | 0.00 | 59 | 1012.9 |
| 20260505165317 | 26 | 155 | 4.8 | 16.1 | 0.00 | 0.00 | 0.00 | 60 | 1012.9 |
| 20260505164834 | 26 | 203 | 8.0 | 16.1 | 0.00 | 0.00 | 0.00 | 59 | 1012.9 |
| 20260505164308 | 26 | 207 | 3.2 | 16.1 | 0.00 | 0.00 | 0.00 | 60 | 1012.9 |
| 20260505163824 | 26 | 204 | 6.4 | 16.1 | 0.00 | 0.00 | 0.00 | 58 | 1012.9 |
| 20260505163320 | 26 | 88 | 3.2 | 16.1 | 0.00 | 0.00 | 0.00 | 59 | 1012.9 |
| 20260505162815 | 26 | 214 | 6.4 | 16.1 | 0.00 | 0.00 | 0.00 | 58 | 1012.9 |
| 20260505162331 | 27 | 202 | 8.0 | 16.1 | 0.00 | 0.00 | 0.00 | 58 | 1012.9 |
| 20260505161827 | 26 | 202 | 0.0 | 14.5 | 0.00 | 0.00 | 0.00 | 60 | 1012.9 |
| 20260505161316 | 26 | 117 | 4.8 | 17.7 | 0.00 | 0.00 | 0.00 | 60 | 1013.0 |
| 20260505160825 | 26 | 182 | 6.4 | 20.9 | 0.00 | 0.00 | 0.00 | 58 | 1012.8 |
| 20260505153316 | 26 | 167 | 4.8 | 16.1 | 0.00 | 0.00 | 0.00 | 62 | 1013.2 |
| 20260505152832 | 26 | 194 | 4.8 | 16.1 | 0.00 | 0.00 | 0.00 | 61 | 1013.2 |
| 20260505152328 | 26 | 217 | 1.6 | 16.1 | 0.00 | 0.00 | 0.00 | 61 | 1013.2 |
| 20260505151825 | 26 | 207 | 3.2 | 16.1 | 0.00 | 0.00 | 0.00 | 60 | 1013.1 |
| 20260505151342 | 26 | 303 | 0.0 | 16.1 | 0.00 | 0.00 | 0.00 | 61 | 1013.1 |
| 20260505150817 | 26 | 180 | 1.6 | 12.9 | 0.00 | 0.00 | 0.00 | 61 | 1013.0 |
| 20260505150312 | 25 | 238 | 1.6 | 12.9 | 0.00 | 0.00 | 0.00 | 63 | 1013.1 |
| 20260505140411 | 24 | 213 | 1.6 | 14.5 | 0.00 | 0.00 | 0.00 | 69 | 1013.1 |
| 20260505124813 | 21 | 170 | 3.2 | 8.0 | 0.00 | 0.00 | 0.00 | 75 | 1012.7 |
| 20260505124311 | 21 | 121 | 0.0 | 0.0 | 0.00 | 0.00 | 0.00 | 76 | 1012.6 |
| 20260505123826 | 21 | 121 | 0.0 | 0.0 | 0.00 | 0.00 | 0.00 | 77 | 1012.5 |
| 20260505123321 | 20 | 87 | 0.0 | 0.0 | 0.00 | 0.00 | 0.00 | 79 | 1012.4 |
| 20260505122811 | 20 | 144 | 0.0 | 0.0 | 0.00 | 0.00 | 0.00 | 80 | 1012.3 |
| 20260505122328 | 20 | 143 | 0.0 | 0.0 | 0.00 | 0.00 | 0.00 | 81 | 1012.3 |
| 20260505121824 | 19 | 143 | 0.0 | 0.0 | 0.00 | 0.00 | 0.00 | 81 | 1012.3 |
| 20260505121319 | 19 | 143 | 0.0 | 0.0 | 0.00 | 0.00 | 0.00 | 82 | 1012.2 |
| 20260505120816 | 18 | 132 | 0.0 | 0.0 | 0.00 | 0.00 | 0.00 | 82 | 1012.1 |
| 20260505120333 | 18 | 132 | 0.0 | 0.0 | 0.00 | 0.00 | 0.00 | 83 | 1012.2 |
| 20260505115837 | 18 | 132 | 0.0 | 0.0 | 0.00 | 0.00 | 0.00 | 84 | 1012.1 |
| 20260505115311 | 18 | 132 | 0.0 | 0.0 | 0.00 | 0.00 | 0.00 | 84 | 1012.2 |
| 20260505114852 | 18 | 132 | 0.0 | 0.0 | 0.00 | 0.00 | 0.00 | 84 | 1012.2 |
| 20260505114327 | 17 | 132 | 0.0 | 0.0 | 0.00 | 0.00 | 0.00 | 84 | 1012.3 |
| 20260505113823 | 17 | 132 | 0.0 | 0.0 | 0.00 | 0.00 | 0.00 | 85 | 1012.2 |
| 20260505113319 | 17 | 132 | 0.0 | 0.0 | 0.00 | 0.00 | 0.00 | 85 | 1012.3 |
| 20260505112816 | 17 | 132 | 0.0 | 0.0 | 0.00 | 0.00 | 0.00 | 85 | 1012.3 |
| 20260505112313 | 17 | 132 | 0.0 | 0.0 | 0.00 | 0.00 | 0.00 | 85 | 1012.1 |
| 20260505111828 | 17 | 132 | 0.0 | 0.0 | 0.00 | 0.00 | 0.00 | 85 | 1012.1 |
| 20260505111324 | 17 | 132 | 0.0 | 0.0 | 0.00 | 0.00 | 0.00 | 85 | 1012.1 |
| 20260505110819 | 17 | 132 | 0.0 | 0.0 | 0.00 | 0.00 | 0.00 | 84 | 1012.2 |
| 20260505110314 | 17 | 132 | 0.0 | 0.0 | 0.00 | 0.00 | 0.00 | 84 | 1012.2 |
| 20260505101827 | 17 | 132 | 0.0 | 0.0 | 0.00 | 0.00 | 0.00 | 82 | 1012.4 |
| 20260505101322 | 17 | 132 | 0.0 | 0.0 | 0.00 | 0.00 | 0.00 | 82 | 1012.4 |
| 20260505100819 | 17 | 132 | 0.0 | 0.0 | 0.00 | 0.00 | 0.00 | 82 | 1012.4 |
| 20260505100316 | 17 | 132 | 0.0 | 0.0 | 0.00 | 0.00 | 0.00 | 82 | 1012.4 |
| 20260505095832 | 17 | 132 | 0.0 | 0.0 | 0.00 | 0.00 | 0.00 | 82 | 1012.4 |
| 20260505095328 | 17 | 132 | 0.0 | 0.0 | 0.00 | 0.00 | 0.00 | 81 | 1012.4 |
| 20260505094840 | 17 | 132 | 0.0 | 0.0 | 0.00 | 0.00 | 0.00 | 81 | 1012.3 |
| 20260505094314 | 17 | 132 | 0.0 | 0.0 | 0.00 | 0.00 | 0.00 | 81 | 1012.3 |
| 20260505093810 | 17 | 132 | 0.0 | 0.0 | 0.00 | 0.00 | 0.00 | 81 | 1012.3 |
| 20260505093326 | 17 | 132 | 0.0 | 0.0 | 0.00 | 0.00 | 0.00 | 81 | 1012.3 |
| 20260505092822 | 17 | 132 | 0.0 | 0.0 | 0.00 | 0.00 | 0.00 | 81 | 1012.2 |
| 20260505092320 | 17 | 132 | 0.0 | 0.0 | 0.00 | 0.00 | 0.00 | 82 | 1012.1 |
| 20260505091817 | 17 | 132 | 0.0 | 0.0 | 0.00 | 0.00 | 0.00 | 81 | 1012.1 |
| 20260505091333 | 17 | 132 | 0.0 | 0.0 | 0.00 | 0.00 | 0.00 | 82 | 1012.2 |
| 20260505090828 | 17 | 132 | 0.0 | 0.0 | 0.00 | 0.00 | 0.00 | 82 | 1012.1 |
| 20260505090324 | 17 | 132 | 0.0 | 0.0 | 0.00 | 0.00 | 0.00 | 81 | 1012.2 |
| 20260505085820 | 17 | 132 | 0.0 | 0.0 | 0.00 | 0.00 | 0.00 | 81 | 1012.2 |
| 20260505085316 | 17 | 132 | 0.0 | 0.0 | 0.00 | 0.00 | 0.00 | 81 | 1012.1 |
| 20260505084832 | 17 | 132 | 0.0 | 0.0 | 0.00 | 0.00 | 0.00 | 80 | 1012.2 |
| 20260505084353 | 17 | 132 | 0.0 | 0.0 | 0.00 | 0.00 | 0.00 | 80 | 1012.2 |
| 20260505083849 | 17 | 132 | 0.0 | 0.0 | 0.00 | 0.00 | 0.00 | 80 | 1012.2 |
| 20260505083345 | 17 | 132 | 0.0 | 0.0 | 0.00 | 0.00 | 0.00 | 79 | 1012.3 |
| 20260505082822 | 17 | 132 | 0.0 | 0.0 | 0.00 | 0.00 | 0.00 | 79 | 1012.2 |
| 20260505082317 | 17 | 132 | 0.0 | 0.0 | 0.00 | 0.00 | 0.00 | 79 | 1012.3 |
| 20260505081834 | 17 | 132 | 0.0 | 0.0 | 0.00 | 0.00 | 0.00 | 79 | 1012.3 |
| 20260505081309 | 17 | 132 | 0.0 | 0.0 | 0.00 | 0.00 | 0.00 | 79 | 1012.3 |
| 20260505080826 | 17 | 132 | 0.0 | 0.0 | 0.00 | 0.00 | 0.00 | 79 | 1012.3 |
| 20260505080323 | 17 | 132 | 0.0 | 0.0 | 0.00 | 0.00 | 0.00 | 79 | 1012.3 |
| 20260505075818 | 17 | 132 | 0.0 | 0.0 | 0.00 | 0.00 | 0.00 | 79 | 1012.3 |
| 20260505075313 | 17 | 132 | 0.0 | 0.0 | 0.00 | 0.00 | 0.00 | 79 | 1012.3 |
| 20260505074810 | 17 | 132 | 0.0 | 0.0 | 0.00 | 0.00 | 0.00 | 79 | 1012.3 |
| 20260505074327 | 17 | 132 | 0.0 | 0.0 | 0.00 | 0.00 | 0.00 | 79 | 1012.4 |
| 20260505073824 | 17 | 132 | 0.0 | 0.0 | 0.00 | 0.00 | 0.00 | 78 | 1012.5 |
| 20260505073341 | 17 | 132 | 0.0 | 0.0 | 0.00 | 0.00 | 0.00 | 78 | 1012.5 |
| 20260505072815 | 17 | 132 | 0.0 | 0.0 | 0.00 | 0.00 | 0.00 | 77 | 1012.5 |
| 20260505072312 | 17 | 132 | 0.0 | 0.0 | 0.00 | 0.00 | 0.00 | 77 | 1012.4 |
| 20260505071824 | 17 | 132 | 0.0 | 0.0 | 0.00 | 0.00 | 0.00 | 76 | 1012.5 |
| 20260505071320 | 17 | 132 | 0.0 | 0.0 | 0.00 | 0.00 | 0.00 | 76 | 1012.6 |
| 20260505070816 | 17 | 132 | 0.0 | 0.0 | 0.00 | 0.00 | 0.00 | 76 | 1012.7 |
| 20260505070312 | 17 | 132 | 0.0 | 0.0 | 0.00 | 0.00 | 0.00 | 76 | 1012.7 |
| 20260505065809 | 17 | 132 | 0.0 | 0.0 | 0.00 | 0.00 | 0.00 | 76 | 1012.9 |
| 20260505065325 | 17 | 132 | 0.0 | 0.0 | 0.00 | 0.00 | 0.00 | 75 | 1013.0 |
| 20260505064822 | 17 | 132 | 0.0 | 0.0 | 0.00 | 0.00 | 0.00 | 75 | 1013.0 |
| 20260505064319 | 17 | 132 | 0.0 | 0.0 | 0.00 | 0.00 | 0.00 | 75 | 1013.1 |
| 20260505063814 | 17 | 132 | 0.0 | 0.0 | 0.00 | 0.00 | 0.00 | 75 | 1013.2 |
| 20260505063309 | 17 | 132 | 0.0 | 0.0 | 0.00 | 0.00 | 0.00 | 74 | 1013.3 |
| 20260505062825 | 17 | 132 | 0.0 | 0.0 | 0.00 | 0.00 | 0.00 | 74 | 1013.4 |
| 20260505062321 | 17 | 132 | 0.0 | 0.0 | 0.00 | 0.00 | 0.00 | 74 | 1013.3 |
| 20260505061818 | 17 | 132 | 0.0 | 0.0 | 0.00 | 0.00 | 0.00 | 73 | 1013.3 |
| 20260505061333 | 17 | 132 | 0.0 | 0.0 | 0.00 | 0.00 | 0.00 | 73 | 1013.3 |
| 20260505060850 | 17 | 132 | 0.0 | 0.0 | 0.00 | 0.00 | 0.00 | 73 | 1013.3 |
| 20260505060326 | 17 | 132 | 0.0 | 0.0 | 0.00 | 0.00 | 0.00 | 72 | 1013.3 |
| 20260505055823 | 17 | 132 | 0.0 | 0.0 | 0.00 | 0.00 | 0.00 | 71 | 1013.4 |
| 20260505055318 | 18 | 132 | 0.0 | 0.0 | 0.00 | 0.00 | 0.00 | 71 | 1013.4 |
| 20260505054834 | 18 | 132 | 0.0 | 0.0 | 0.00 | 0.00 | 0.00 | 71 | 1013.3 |
| 20260505054328 | 18 | 132 | 0.0 | 0.0 | 0.00 | 0.00 | 0.00 | 69 | 1013.4 |
| 20260505053844 | 18 | 132 | 0.0 | 0.0 | 0.00 | 0.00 | 0.00 | 69 | 1013.5 |
| 20260505053319 | 18 | 132 | 0.0 | 0.0 | 0.00 | 0.00 | 0.00 | 68 | 1013.5 |
| 20260505052816 | 18 | 132 | 0.0 | 0.0 | 0.00 | 0.00 | 0.00 | 68 | 1013.3 |
| 20260505052333 | 18 | 132 | 0.0 | 0.0 | 0.00 | 0.00 | 0.00 | 68 | 1013.2 |
| 20260505051829 | 18 | 132 | 0.0 | 0.0 | 0.00 | 0.00 | 0.00 | 68 | 1013.1 |
| 20260505051343 | 18 | 132 | 0.0 | 0.0 | 0.00 | 0.00 | 0.00 | 67 | 1013.1 |
| 20260505050838 | 18 | 132 | 0.0 | 0.0 | 0.00 | 0.00 | 0.00 | 67 | 1013.2 |
| 20260505050312 | 18 | 132 | 0.0 | 0.0 | 0.00 | 0.00 | 0.00 | 67 | 1013.2 |
| 20260505041339 | 19 | 132 | 0.0 | 0.0 | 0.00 | 0.00 | 0.00 | 64 | 1013.8 |
| 20260505040815 | 19 | 132 | 0.0 | 0.0 | 0.00 | 0.00 | 0.00 | 64 | 1013.9 |
| 20260505040310 | 19 | 132 | 0.0 | 0.0 | 0.00 | 0.00 | 0.00 | 63 | 1013.9 |
| 20260505035826 | 20 | 132 | 0.0 | 0.0 | 0.00 | 0.00 | 0.00 | 63 | 1014.0 |
| 20260505035324 | 20 | 132 | 0.0 | 0.0 | 0.00 | 0.00 | 0.00 | 63 | 1013.9 |
| 20260505034820 | 20 | 132 | 0.0 | 0.0 | 0.00 | 0.00 | 0.00 | 62 | 1013.9 |
| 20260505034316 | 20 | 135 | 0.0 | 0.0 | 0.00 | 0.00 | 0.00 | 62 | 1013.8 |
| 20260505033831 | 20 | 135 | 0.0 | 0.0 | 0.00 | 0.00 | 0.00 | 62 | 1013.9 |
| 20260505033326 | 20 | 135 | 0.0 | 1.6 | 0.00 | 0.00 | 0.00 | 62 | 1013.8 |
| 20260505032823 | 20 | 135 | 0.0 | 1.6 | 0.00 | 0.00 | 0.00 | 61 | 1013.8 |
| 20260505032317 | 20 | 134 | 0.0 | 0.0 | 0.00 | 0.00 | 0.00 | 61 | 1013.6 |
| 20260505031834 | 20 | 134 | 0.0 | 0.0 | 0.00 | 0.00 | 0.00 | 61 | 1013.6 |
| 20260505031350 | 20 | 134 | 0.0 | 0.0 | 0.00 | 0.00 | 0.00 | 61 | 1013.7 |
| 20260505030825 | 20 | 132 | 0.0 | 1.6 | 0.00 | 0.00 | 0.00 | 61 | 1013.9 |
| 20260505030322 | 20 | 132 | 0.0 | 1.6 | 0.00 | 0.00 | 0.00 | 60 | 1013.9 |
| 20260505025816 | 20 | 138 | 0.0 | 1.6 | 0.00 | 0.00 | 0.00 | 60 | 1013.8 |
| 20260505025332 | 20 | 138 | 0.0 | 1.6 | 0.00 | 0.00 | 0.00 | 60 | 1013.8 |
| 20260505024828 | 20 | 157 | 0.0 | 0.0 | 0.00 | 0.00 | 0.00 | 60 | 1013.8 |
| 20260505024323 | 20 | 211 | 0.0 | 3.2 | 0.00 | 0.00 | 0.00 | 59 | 1013.8 |
| 20260505023819 | 20 | 141 | 0.0 | 3.2 | 0.00 | 0.00 | 0.00 | 59 | 1013.7 |
| 20260505023309 | 20 | 183 | 0.0 | 3.2 | 0.00 | 0.00 | 0.00 | 59 | 1013.7 |
| 20260505022828 | 20 | 89 | 0.0 | 3.2 | 0.00 | 0.00 | 0.00 | 59 | 1013.7 |
| 20260505022322 | 20 | 148 | 0.0 | 4.8 | 0.00 | 0.00 | 0.00 | 58 | 1013.8 |
| 20260505021819 | 20 | 148 | 0.0 | 4.8 | 0.00 | 0.00 | 0.00 | 58 | 1013.7 |
| 20260505021334 | 21 | 177 | 0.0 | 8.0 | 0.00 | 0.00 | 0.00 | 58 | 1013.7 |
| 20260505020844 | 21 | 91 | 0.0 | 8.0 | 0.00 | 0.00 | 0.00 | 58 | 1013.7 |
| 20260505020319 | 21 | 126 | 0.0 | 1.6 | 0.00 | 0.00 | 0.00 | 57 | 1013.7 |
| 20260505015815 | 21 | 113 | 0.0 | 1.6 | 0.00 | 0.00 | 0.00 | 57 | 1013.6 |
| 20260505015311 | 21 | 113 | 0.0 | 1.6 | 0.00 | 0.00 | 0.00 | 57 | 1013.6 |
| 20260505014827 | 21 | 113 | 0.0 | 1.6 | 0.00 | 0.00 | 0.00 | 56 | 1013.5 |
| 20260505014322 | 21 | 162 | 0.0 | 0.0 | 0.00 | 0.00 | 0.00 | 56 | 1013.4 |
| 20260505013817 | 21 | 162 | 0.0 | 0.0 | 0.00 | 0.00 | 0.00 | 55 | 1013.3 |
| 20260505013333 | 21 | 162 | 0.0 | 0.0 | 0.00 | 0.00 | 0.00 | 55 | 1013.3 |
| 20260505012849 | 21 | 246 | 0.0 | 0.0 | 0.00 | 0.00 | 0.00 | 55 | 1013.4 |
| 20260505012325 | 21 | 218 | 0.0 | 0.0 | 0.00 | 0.00 | 0.00 | 55 | 1013.5 |
| 20260505011320 | 21 | 153 | 0.0 | 0.0 | 0.00 | 0.00 | 0.00 | 54 | 1013.3 |
| 20260505010816 | 21 | 213 | 0.0 | 3.2 | 0.00 | 0.00 | 0.00 | 54 | 1013.2 |
| 20260505010311 | 21 | 213 | 0.0 | 3.2 | 0.00 | 0.00 | 0.00 | 54 | 1013.4 |
| 20260505005827 | 21 | 179 | 0.0 | 3.2 | 0.00 | 0.00 | 0.00 | 54 | 1013.3 |
| 20260505005324 | 22 | 194 | 0.0 | 3.2 | 0.00 | 0.00 | 0.00 | 53 | 1013.5 |
| 20260505004907 | 22 | 84 | 0.0 | 3.2 | 0.00 | 0.00 | 0.00 | 53 | 1013.7 |
| 20260505004322 | 22 | 121 | 0.0 | 3.2 | 0.00 | 0.00 | 0.00 | 52 | 1013.7 |
| 20260505003839 | 22 | 147 | 0.0 | 4.8 | 0.00 | 0.00 | 0.00 | 52 | 1013.6 |
| 20260505003313 | 22 | 179 | 0.0 | 4.8 | 0.00 | 0.00 | 0.00 | 52 | 1013.5 |
| 20260505002830 | 22 | 159 | 0.0 | 11.3 | 0.00 | 0.00 | 0.00 | 51 | 1013.6 |
| 20260505002347 | 22 | 242 | 0.0 | 9.7 | 0.00 | 0.00 | 0.00 | 51 | 1013.7 |
| 20260505001820 | 22 | 246 | 0.0 | 9.7 | 0.00 | 0.00 | 0.00 | 51 | 1013.8 |
| 20260505001316 | 22 | 229 | 0.0 | 9.7 | 0.00 | 0.00 | 0.00 | 50 | 1013.8 |
| 20260505000813 | 22 | 222 | 1.6 | 11.3 | 0.00 | 0.00 | 0.00 | 50 | 1013.6 |
| 20260505000310 | 22 | 170 | 1.6 | 11.3 | 0.00 | 0.00 | 0.00 | 49 | 1013.7 |
| 20260504235827 | 23 | 209 | 6.4 | 11.3 | 0.00 | 0.00 | 0.00 | 48 | 1013.7 |
| 20260504235323 | 23 | 232 | 4.8 | 11.3 | 0.00 | 0.00 | 0.00 | 47 | 1013.7 |
| 20260504234817 | 23 | 217 | 1.6 | 9.7 | 0.00 | 0.00 | 0.00 | 47 | 1013.7 |
| 20260504234333 | 23 | 281 | 3.2 | 11.3 | 0.00 | 0.00 | 0.00 | 46 | 1013.8 |
| 20260504233849 | 24 | 239 | 4.8 | 11.3 | 0.00 | 0.00 | 0.00 | 46 | 1013.9 |
| 20260504233323 | 24 | 248 | 3.2 | 11.3 | 0.00 | 0.00 | 0.00 | 44 | 1014.0 |
| 20260504232820 | 25 | 211 | 0.0 | 9.7 | 0.00 | 0.00 | 0.00 | 44 | 1013.9 |
| 20260504232316 | 25 | 215 | 0.0 | 9.7 | 0.00 | 0.00 | 0.00 | 43 | 1013.9 |
| 20260504231828 | 25 | 182 | 0.0 | 4.8 | 0.00 | 0.00 | 0.00 | 43 | 1014.0 |
| 20260504231346 | 25 | 170 | 1.6 | 9.7 | 0.00 | 0.00 | 0.00 | 43 | 1014.0 |
| 20260504230844 | 25 | 199 | 1.6 | 11.3 | 0.00 | 0.00 | 0.00 | 42 | 1014.1 |
| 20260504230317 | 25 | 258 | 1.6 | 11.3 | 0.00 | 0.00 | 0.00 | 41 | 1014.0 |
| 20260504225813 | 25 | 239 | 4.8 | 11.3 | 0.00 | 0.00 | 0.00 | 40 | 1014.1 |
| 20260504225329 | 25 | 242 | 0.0 | 4.8 | 0.00 | 0.00 | 0.00 | 40 | 1014.0 |
| 20260504224825 | 25 | 190 | 0.0 | 9.7 | 0.00 | 0.00 | 0.00 | 39 | 1014.2 |
| 20260504224322 | 25 | 169 | 3.2 | 9.7 | 0.00 | 0.00 | 0.00 | 38 | 1014.2 |
| 20260504223818 | 26 | 207 | 0.0 | 4.8 | 0.00 | 0.00 | 0.00 | 37 | 1014.3 |
| 20260504223315 | 26 | 63 | 0.0 | 8.0 | 0.00 | 0.00 | 0.00 | 38 | 1014.4 |
| 20260504222810 | 26 | 243 | 1.6 | 8.0 | 0.00 | 0.00 | 0.00 | 39 | 1014.3 |
| 20260504222328 | 26 | 296 | 1.6 | 9.7 | 0.00 | 0.00 | 0.00 | 38 | 1014.4 |
| 20260504221816 | 26 | 144 | 1.6 | 9.7 | 0.00 | 0.00 | 0.00 | 38 | 1014.3 |
| 20260504221332 | 26 | 136 | 1.6 | 8.0 | 0.00 | 0.00 | 0.00 | 37 | 1014.6 |
| 20260504220827 | 26 | 346 | 0.0 | 6.4 | 0.00 | 0.00 | 0.00 | 37 | 1014.6 |
| 20260504220410 | 26 | 304 | 1.6 | 6.4 | 0.00 | 0.00 | 0.00 | 38 | 1014.6 |
| 20260504215825 | 26 | 262 | 0.0 | 9.7 | 0.00 | 0.00 | 0.00 | 36 | 1014.6 |
| 20260504214823 | 26 | 212 | 0.0 | 11.3 | 0.00 | 0.00 | 0.00 | 39 | 1014.4 |
| 20260504214320 | 26 | 153 | 4.8 | 11.3 | 0.00 | 0.00 | 0.00 | 36 | 1014.5 |
| 20260504213816 | 26 | 153 | 0.0 | 12.9 | 0.00 | 0.00 | 0.00 | 39 | 1014.4 |
| 20260504213331 | 26 | 144 | 4.8 | 12.9 | 0.00 | 0.00 | 0.00 | 38 | 1014.5 |
| 20260504212848 | 26 | 146 | 0.0 | 11.3 | 0.00 | 0.00 | 0.00 | 37 | 1014.5 |
| 20260504212323 | 26 | 235 | 0.0 | 17.7 | 0.00 | 0.00 | 0.00 | 36 | 1014.7 |
| 20260504211820 | 26 | 200 | 4.8 | 17.7 | 0.00 | 0.00 | 0.00 | 35 | 1014.9 |
| 20260504211316 | 26 | 223 | 1.6 | 11.3 | 0.00 | 0.00 | 0.00 | 36 | 1014.8 |
| 20260504210811 | 26 | 101 | 3.2 | 11.3 | 0.00 | 0.00 | 0.00 | 35 | 1014.5 |
| 20260504210327 | 26 | 103 | 3.2 | 14.5 | 0.00 | 0.00 | 0.00 | 36 | 1014.6 |
| 20260504205824 | 26 | 157 | 1.6 | 14.5 | 0.00 | 0.00 | 0.00 | 37 | 1014.5 |
| 20260504205319 | 26 | 186 | 3.2 | 16.1 | 0.00 | 0.00 | 0.00 | 36 | 1014.7 |
| 20260504204815 | 26 | 91 | 6.4 | 16.1 | 0.00 | 0.00 | 0.00 | 36 | 1014.9 |
| 20260504204311 | 26 | 176 | 1.6 | 11.3 | 0.00 | 0.00 | 0.00 | 36 | 1014.9 |
| 20260504203827 | 26 | 138 | 1.6 | 11.3 | 0.00 | 0.00 | 0.00 | 36 | 1014.9 |
| 20260504203323 | 26 | 175 | 3.2 | 11.3 | 0.00 | 0.00 | 0.00 | 36 | 1015.1 |
| 20260504202820 | 26 | 159 | 3.2 | 14.5 | 0.00 | 0.00 | 0.00 | 36 | 1015.1 |
| 20260504202314 | 26 | 303 | 4.8 | 14.5 | 0.00 | 0.00 | 0.00 | 35 | 1015.2 |
| 20260504201811 | 26 | 324 | 1.6 | 11.3 | 0.00 | 0.00 | 0.00 | 37 | 1015.3 |
| 20260504201322 | 26 | 267 | 4.8 | 9.7 | 0.00 | 0.00 | 0.00 | 35 | 1015.5 |
| 20260504200820 | 26 | 208 | 3.2 | 16.1 | 0.00 | 0.00 | 0.00 | 37 | 1015.6 |
| 20260504195817 | 26 | 167 | 3.2 | 12.9 | 0.00 | 0.00 | 0.00 | 35 | 1015.7 |
| 20260504195313 | 26 | 273 | 1.6 | 8.0 | 0.00 | 0.00 | 0.00 | 39 | 1015.9 |
| 20260504194828 | 26 | 263 | 0.0 | 11.3 | 0.00 | 0.00 | 0.00 | 36 | 1015.9 |
| 20260504194317 | 26 | 252 | 0.0 | 12.9 | 0.00 | 0.00 | 0.00 | 39 | 1016.1 |
| 20260504193812 | 26 | 221 | 4.8 | 12.9 | 0.00 | 0.00 | 0.00 | 39 | 1016.1 |
| 20260504193329 | 26 | 209 | 4.8 | 19.3 | 0.00 | 0.00 | 0.00 | 37 | 1016.0 |
| 20260504192824 | 26 | 219 | 3.2 | 11.3 | 0.00 | 0.00 | 0.00 | 37 | 1016.1 |
| 20260504192321 | 26 | 298 | 1.6 | 19.3 | 0.00 | 0.00 | 0.00 | 39 | 1016.2 |
| 20260504191817 | 26 | 96 | 4.8 | 17.7 | 0.00 | 0.00 | 0.00 | 39 | 1016.1 |
| 20260504191313 | 26 | 213 | 3.2 | 9.7 | 0.00 | 0.00 | 0.00 | 39 | 1016.1 |
| 20260504190829 | 26 | 281 | 1.6 | 22.5 | 0.00 | 0.00 | 0.00 | 38 | 1016.2 |
| 20260504185825 | 26 | 263 | 6.4 | 16.1 | 0.00 | 0.00 | 0.00 | 39 | 1016.4 |
| 20260504185321 | 26 | 232 | 1.6 | 11.3 | 0.00 | 0.00 | 0.00 | 40 | 1016.4 |
| 20260504184817 | 26 | 116 | 3.2 | 11.3 | 0.00 | 0.00 | 0.00 | 38 | 1016.4 |
| 20260504184313 | 25 | 351 | 3.2 | 14.5 | 0.00 | 0.00 | 0.00 | 40 | 1016.6 |
| 20260504183830 | 25 | 287 | 1.6 | 16.1 | 0.00 | 0.00 | 0.00 | 40 | 1016.7 |
| 20260504183326 | 25 | 275 | 4.8 | 20.9 | 0.00 | 0.00 | 0.00 | 38 | 1016.7 |
| 20260504182824 | 25 | 239 | 4.8 | 20.9 | 0.00 | 0.00 | 0.00 | 40 | 1016.7 |
| 20260504182320 | 26 | 227 | 6.4 | 16.1 | 0.00 | 0.00 | 0.00 | 39 | 1016.7 |
| 20260504181837 | 26 | 202 | 1.6 | 11.3 | 0.00 | 0.00 | 0.00 | 40 | 1016.7 |
| 20260504181353 | 26 | 184 | 1.6 | 11.3 | 0.00 | 0.00 | 0.00 | 41 | 1016.7 |
| 20260504180848 | 26 | 290 | 4.8 | 11.3 | 0.00 | 0.00 | 0.00 | 38 | 1016.6 |
| 20260504180343 | 26 | 24 | 0.0 | 3.2 | 0.00 | 0.00 | 0.00 | 39 | 1016.7 |
| 20260504175818 | 26 | 261 | 0.0 | 3.2 | 0.00 | 0.00 | 0.00 | 37 | 1016.7 |
| 20260504175314 | 26 | 98 | 0.0 | 0.0 | 0.00 | 0.00 | 0.00 | 39 | 1016.9 |
| 20260504174830 | 25 | 161 | 0.0 | 11.3 | 0.00 | 0.00 | 0.00 | 41 | 1016.9 |
| 20260504174326 | 25 | 269 | 0.0 | 14.5 | 0.00 | 0.00 | 0.00 | 39 | 1017.0 |
| 20260504173822 | 26 | 169 | 3.2 | 11.3 | 0.00 | 0.00 | 0.00 | 39 | 1017.0 |
| 20260504173317 | 26 | 212 | 3.2 | 11.3 | 0.00 | 0.00 | 0.00 | 38 | 1017.0 |
| 20260504172814 | 26 | 194 | 3.2 | 9.7 | 0.00 | 0.00 | 0.00 | 40 | 1017.0 |
| 20260504172312 | 25 | 49 | 0.0 | 1.6 | 0.00 | 0.00 | 0.00 | 39 | 1016.8 |